Powrót do katalogu

DAQI-2

AktywnyNaukaSSO
NORAD 68760·PAYLOAD·🇨🇳 China

Wystrzelony Apr 17, 2026 z Jiuquan Satellite Launch Center

Loading…

Następne Przeloty (najbliższe 24 godziny)

TLE

ŚwieżeSource: Space-Track

Epoka: Sep 14, 2026, 14:51 UTC

1 68760U 26084A   26257.61914733  .00000277  00000-0  71059-4 0  9995
2 68760  98.2807 331.3718 0002300 149.4836 210.6497 14.57587132 21925

Śledź DAQI-2 w czasie rzeczywistym z AllMySat

Download on the App Store